M0ZPG Weather Reports


time (UTC)temp
C
wind
direction
speed
KPH
gust
KPH
rain 1hr
cm
rain 24hr
cm
rain mn
cm
humidity
%
barometer
mb
20260901080905 16 259 0.0 3.2 0.00 0.03 0.00 73 1020.1
20260901080006 16 259 0.0 1.6 0.00 0.03 0.00 75 1019.9
20260901075617 16 259 0.0 1.6 0.00 0.03 0.00 76 1019.8
20260901074503 15 259 0.0 1.6 0.00 0.03 0.00 79 1019.9
20260901073603 14 259 0.0 1.6 0.00 0.03 0.00 82 1019.8
20260901072705 13 259 0.0 1.6 0.00 0.03 0.00 84 1019.7
20260901072017 13 259 0.0 1.6 0.00 0.03 0.00 84 1019.8
20260901070905 13 259 0.0 1.6 0.00 0.03 0.00 85 1019.7
20260901070003 13 251 0.0 9.7 0.00 0.03 0.00 85 1019.8
20260901065613 13 245 0.0 6.4 0.00 0.03 0.00 86 1019.8
20260901064506 13 244 0.0 4.8 0.00 0.03 0.00 87 1019.7
20260901063603 12 244 0.0 4.8 0.00 0.03 0.00 87 1019.5
20260901062703 12 243 0.0 3.2 0.00 0.03 0.00 88 1019.4
20260901061803 12 243 0.0 1.6 0.00 0.03 0.00 88 1019.6
20260901061115 12 0 0.0 0.0 0.00 0.03 0.00 88 1019.5
20260901060004 12 244 0.0 1.6 0.00 0.03 0.00 89 1019.4
20260901055614 12 244 0.0 1.6 0.00 0.03 0.00 89 1019.4
20260901054716 12 248 0.0 3.2 0.00 0.03 0.00 90 1019.2
20260901053605 12 273 0.0 1.6 0.00 0.03 0.00 90 1019.2
20260901052705 11 273 0.0 1.6 0.00 0.03 0.00 90 1019.2
20260901051805 11 273 0.0 1.6 0.00 0.03 0.00 89 1019.1
20260901050903 11 0 0.0 0.0 0.00 0.03 0.00 89 1019.0
20260901050003 11 0 0.0 0.0 0.00 0.03 0.00 89 1019.0
20260901045405 11 0 0.0 0.0 0.00 0.03 0.00 89 1018.9
20260901044506 11 274 0.0 1.6 0.00 0.03 0.00 88 1018.8
20260901043814 12 0 0.0 0.0 0.00 0.03 0.00 88 1018.9
20260901042703 12 0 0.0 0.0 0.00 0.03 0.00 88 1019.0
20260901041805 12 0 0.0 0.0 0.00 0.03 0.00 87 1019.0
20260901040905 12 273 0.0 1.6 0.00 0.03 0.00 87 1018.7
20260901040005 12 0 0.0 0.0 0.00 0.03 0.00 86 1018.8
20260901035615 12 273 0.0 1.6 0.00 0.03 0.00 86 1018.7
20260901034504 12 273 0.0 1.6 0.00 0.03 0.00 86 1018.7
20260901033820 12 0 0.0 0.0 0.00 0.03 0.00 86 1018.7
20260901032703 12 0 0.0 0.0 0.00 0.03 0.00 85 1018.8
20260901031803 12 0 0.0 0.0 0.00 0.03 0.00 84 1018.7
20260901031117 12 0 0.0 0.0 0.00 0.03 0.00 84 1018.8
20260901030005 13 0 0.0 0.0 0.00 0.03 0.00 83 1018.7
20260901025405 13 273 0.0 1.6 0.00 0.03 0.00 83 1018.7
20260901024503 13 273 0.0 1.6 0.00 0.03 0.00 82 1018.8
20260901023606 13 273 0.0 1.6 0.00 0.03 0.00 82 1018.8
20260901022705 13 0 0.0 0.0 0.00 0.03 0.00 81 1018.7
20260901021804 13 0 0.0 0.0 0.00 0.03 0.00 80 1018.7
20260901020903 13 0 0.0 0.0 0.00 0.03 0.00 79 1018.7
20260901020005 14 0 0.0 0.0 0.00 0.03 0.00 79 1018.7
20260901015403 14 0 0.0 0.0 0.00 0.03 0.00 79 1018.6
20260901014505 14 0 0.0 0.0 0.00 0.03 0.00 79 1018.7
20260901013816 14 273 0.0 1.6 0.00 0.03 0.00 78 1018.7
20260901012705 14 273 0.0 1.6 0.00 0.03 0.00 78 1018.6
20260901011803 15 273 0.0 1.6 0.00 0.03 0.00 77 1018.6
20260901010906 15 0 0.0 0.0 0.00 0.03 0.00 76 1018.6
20260901010003 15 0 0.0 0.0 0.00 0.03 0.00 76 1018.6
20260901005403 15 273 0.0 1.6 0.00 0.03 0.00 76 1018.5
20260901004505 15 0 0.0 0.0 0.00 0.03 0.00 75 1018.5
20260901003605 15 273 0.0 4.8 0.00 0.03 0.00 74 1018.5
20260901002705 16 273 0.0 4.8 0.00 0.03 0.00 74 1018.5
20260901001803 16 275 0.0 1.6 0.00 0.03 0.00 73 1018.4
20260901000905 16 276 0.0 4.8 0.00 0.05 0.00 73 1018.5
20260901000005 16 279 0.0 4.8 0.00 0.05 0.00 72 1018.4
20260831235403 16 284 0.0 1.6 0.00 0.05 0.00 72 1018.3
20260831234715 16 290 0.0 4.8 0.00 0.05 0.00 71 1018.4
20260831233603 16 238 0.0 6.4 0.00 0.05 0.00 70 1018.2
20260831232705 17 239 0.0 6.4 0.00 0.05 0.00 70 1018.2
20260831231803 17 239 0.0 4.8 0.00 0.05 0.00 70 1018.1
20260831230906 17 252 0.0 4.8 0.00 0.05 0.00 70 1018.1
20260831230003 17 252 0.0 3.2 0.00 0.05 0.00 69 1018.0
20260831225405 17 252 0.0 3.2 0.00 0.05 0.05 69 1018.1
20260831224715 17 252 0.0 3.2 0.00 0.05 0.05 69 1018.1
20260831223604 17 254 0.0 4.8 0.00 0.05 0.05 68 1018.1
20260831222705 17 281 0.0 4.8 0.00 0.05 0.05 68 1018.0
20260831221803 17 307 0.0 1.6 0.00 0.05 0.05 68 1017.9
20260831220906 17 308 0.0 1.6 0.00 0.05 0.05 68 1017.8
20260831220005 17 284 0.0 6.4 0.00 0.05 0.05 68 1017.8
20260831215614 17 273 0.0 6.4 0.00 0.05 0.05 68 1017.8
20260831214504 17 248 0.0 4.8 0.00 0.05 0.05 68 1017.7
20260831213605 17 253 1.6 4.8 0.00 0.05 0.05 69 1017.7
20260831212703 17 271 0.0 6.4 0.00 0.05 0.05 70 1017.5
20260831211803 17 261 1.6 6.4 0.00 0.05 0.05 71 1017.4
20260831210903 17 250 0.0 3.2 0.00 0.05 0.05 72 1017.5
20260831210218 17 250 0.0 3.2 0.00 0.05 0.05 72 1017.3
20260831204717 17 248 0.0 3.2 0.00 0.05 0.05 72 1016.9
20260831203605 18 248 0.0 1.6 0.00 0.13 0.05 71 1016.7
20260831202704 18 248 0.0 1.6 0.00 0.13 0.05 70 1016.7
20260831201803 18 247 0.0 3.2 0.00 0.13 0.05 69 1016.5
20260831200903 18 247 0.0 1.6 0.00 0.13 0.05 69 1016.5
20260831200003 18 249 0.0 3.2 0.00 0.13 0.05 68 1016.4
20260831195404 18 241 0.0 4.8 0.00 0.13 0.05 68 1016.4
20260831194717 18 243 0.0 4.8 0.00 0.13 0.05 68 1016.4
20260831193605 19 253 0.0 4.8 0.00 0.13 0.05 68 1016.2
20260831192917 19 250 0.0 3.2 0.00 0.13 0.05 68 1016.1
20260831192014 19 217 1.6 4.8 0.00 0.13 0.05 67 1016.0
20260831190905 20 254 1.6 6.4 0.00 0.13 0.05 67 1016.0
20260831190004 20 276 1.6 6.4 0.00 0.13 0.05 66 1015.8
20260831185403 20 266 3.2 12.9 0.00 0.13 0.05 66 1015.7
20260831184505 20 262 1.6 11.3 0.00 0.13 0.05 67 1015.6
20260831182703 21 233 3.2 12.9 0.00 0.13 0.05 65 1015.5
20260831181805 21 243 3.2 11.3 0.00 0.13 0.05 64 1015.3
20260831180903 21 253 3.2 12.9 0.00 0.13 0.05 63 1015.1
20260831180005 21 255 3.2 11.3 0.00 0.13 0.05 64 1014.9
20260831175403 21 241 3.2 9.7 0.00 0.13 0.05 64 1014.8
20260831174505 21 249 3.2 14.5 0.00 0.13 0.05 64 1014.5
20260831173603 21 227 3.2 12.9 0.00 0.13 0.05 65 1014.6
20260831172703 21 275 1.6 11.3 0.00 0.13 0.05 65 1014.5
20260831171804 21 325 0.0 4.8 0.00 0.13 0.05 66 1014.4
20260831170903 21 326 0.0 6.4 0.00 0.13 0.05 66 1014.3
20260831170005 21 330 1.6 6.4 0.00 0.13 0.05 65 1014.1
20260831165405 22 328 3.2 8.0 0.00 0.13 0.05 64 1014.1
20260831164505 22 327 1.6 8.0 0.00 0.13 0.05 64 1013.9
20260831163604 22 335 1.6 8.0 0.00 0.13 0.05 64 1013.7
20260831162706 22 340 4.8 11.3 0.00 0.13 0.05 63 1013.6
20260831161805 22 331 3.2 14.5 0.00 0.13 0.05 63 1013.7
20260831161114 22 307 1.6 14.5 0.00 0.13 0.05 61 1013.6
20260831160005 22 307 1.6 4.8 0.00 0.13 0.05 61 1013.6
20260831155403 22 305 1.6 4.8 0.00 0.13 0.05 60 1013.6
20260831154715 22 261 1.6 4.8 0.00 0.13 0.05 61 1013.5
20260831153606 22 240 3.2 12.9 0.00 0.13 0.05 59 1013.5
20260831152703 23 240 3.2 11.3 0.00 0.13 0.05 58 1013.4
20260831151804 23 255 3.2 8.0 0.00 0.13 0.05 56 1013.2
20260831150905 23 273 3.2 8.0 0.00 0.13 0.05 55 1013.1
20260831150217 24 268 3.2 6.4 0.00 0.13 0.05 55 1013.1
20260831145405 24 252 3.2 11.3 0.00 0.13 0.05 54 1013.1
20260831144504 23 285 3.2 9.7 0.00 0.13 0.05 57 1013.0
20260831143603 22 265 1.6 14.5 0.00 0.13 0.05 57 1013.0
20260831142703 23 303 1.6 8.0 0.00 0.13 0.05 57 1012.8
20260831141805 23 292 1.6 8.0 0.00 0.13 0.05 56 1012.8
20260831140903 23 307 1.6 14.5 0.00 0.13 0.05 57 1012.7
20260831140217 23 299 3.2 11.3 0.00 0.13 0.05 59 1012.6
20260831135403 23 252 1.6 11.3 0.00 0.13 0.05 59 1012.6
20260831134505 23 267 1.6 17.7 0.00 0.13 0.05 59 1012.5
20260831133603 23 273 3.2 11.3 0.00 0.13 0.05 57 1012.6
20260831132705 24 264 3.2 12.9 0.00 0.13 0.05 55 1012.4
20260831131805 23 255 3.2 11.3 0.00 0.13 0.05 55 1012.3
20260831130903 23 262 3.2 12.9 0.00 0.13 0.05 57 1012.2
20260831130007 23 252 3.2 11.3 0.00 0.13 0.05 61 1012.0
20260831125403 22 260 3.2 8.0 0.00 0.13 0.05 63 1011.9
20260831124504 21 268 3.2 12.9 0.00 0.13 0.05 65 1011.9
20260831123814 22 251 3.2 11.3 0.00 0.13 0.05 63 1011.7
20260831122704 22 273 3.2 11.3 0.00 0.13 0.05 60 1011.6
20260831121806 23 230 3.2 12.9 0.00 0.13 0.05 59 1011.4
20260831120905 23 249 3.2 12.9 0.00 0.13 0.05 60 1011.2
20260831120003 23 261 3.2 11.3 0.00 0.13 0.05 60 1011.0
20260831115403 23 286 1.6 6.4 0.00 0.13 0.05 62 1011.0
20260831114503 22 315 3.2 12.9 0.03 0.13 0.05 64 1010.9
20260831113603 22 241 3.2 8.0 0.03 0.13 0.05 64 1010.8
20260831112705 21 248 3.2 11.3 0.03 0.13 0.05 66 1010.7
20260831111805 21 294 3.2 16.1 0.03 0.13 0.05 67 1010.5
20260831110906 21 301 3.2 11.3 0.03 0.13 0.05 67 1010.5
20260831110004 20 271 3.2 11.3 0.03 0.13 0.05 69 1010.3
20260831105403 20 286 3.2 9.7 0.03 0.13 0.05 68 1010.3
20260831104508 21 327 1.6 8.0 0.00 0.10 0.03 68 1010.3
20260831103605 20 229 3.2 11.3 0.00 0.10 0.03 70 1010.2
20260831102913 20 271 1.6 8.0 0.00 0.10 0.03 71 1010.0
20260831101803 19 259 1.6 6.4 0.00 0.10 0.03 74 1009.9
20260831100903 19 244 3.2 11.3 0.00 0.10 0.03 74 1009.8
20260831100215 19 245 3.2 11.3 0.00 0.10 0.03 73 1009.8
20260831095403 19 241 1.6 6.4 0.00 0.10 0.03 74 1009.8
20260831094713 19 235 1.6 14.5 0.00 0.10 0.03 74 1009.7
20260831093603 19 255 3.2 11.3 0.00 0.10 0.03 75 1009.4
20260831092703 18 268 1.6 11.3 0.00 0.10 0.03 76 1009.2
20260831092015 18 260 3.2 11.3 0.00 0.10 0.03 78 1009.2
20260831090906 18 264 1.6 12.9 0.00 0.10 0.03 77 1009.0
20260831090006 18 239 1.6 9.7 0.00 0.10 0.03 77 1008.9
20260831085405 18 251 1.6 8.0 0.00 0.10 0.03 79 1008.9
20260831084503 17 257 3.2 9.7 0.00 0.10 0.03 79 1008.7
20260831083603 17 252 3.2 12.9 0.00 0.10 0.03 79 1008.6
20260831082705 17 267 3.2 11.3 0.00 0.10 0.03 79 1008.3
20260831082016 17 262 3.2 9.7 0.00 0.10 0.03 80 1008.2